TimeEDT,TemperatureF,Dew PointF,Humidity,Sea Level PressureIn,VisibilityMPH,Wind Direction,Wind SpeedMPH,Gust SpeedMPH,PrecipitationIn,Events,Conditions,WindDirDegrees,DateUTC
12:53 AM,59.0,46.0,62,29.73,10.0,Variable,4.6,-,N/A,,Overcast,0,2011-10-01 04:53:00
1:53 AM,57.9,44.1,60,29.73,10.0,NW,3.5,-,N/A,,Overcast,320,2011-10-01 05:53:00
2:53 AM,57.0,41.0,55,29.73,10.0,Variable,3.5,-,N/A,,Overcast,0,2011-10-01 06:53:00
3:53 AM,55.9,41.0,57,29.73,10.0,Variable,4.6,-,N/A,,Overcast,0,2011-10-01 07:53:00
4:53 AM,55.0,41.0,59,29.73,10.0,NNW,8.1,-,0.00,Rain,Light Rain,340,2011-10-01 08:53:00
5:53 AM,53.1,39.0,59,29.75,10.0,NW,11.5,-,0.00,,Partly Cloudy,320,2011-10-01 09:53:00
6:53 AM,52.0,37.0,57,29.77,10.0,NW,11.5,-,N/A,,Scattered Clouds,320,2011-10-01 10:53:00
7:53 AM,51.1,37.0,59,29.79,10.0,NNW,11.5,-,N/A,,Scattered Clouds,330,2011-10-01 11:53:00
8:53 AM,54.0,36.0,51,29.79,10.0,NNW,11.5,-,N/A,,Clear,340,2011-10-01 12:53:00
9:53 AM,57.0,37.0,47,29.81,10.0,NNW,11.5,-,N/A,,Clear,340,2011-10-01 13:53:00
10:53 AM,57.0,36.0,45,29.83,10.0,Variable,4.6,-,N/A,,Clear,0,2011-10-01 14:53:00
11:53 AM,59.0,37.0,44,29.83,10.0,Variable,6.9,-,N/A,,Partly Cloudy,0,2011-10-01 15:53:00
12:53 PM,60.1,37.0,42,29.83,10.0,Variable,3.5,-,N/A,,Mostly Cloudy,0,2011-10-01 16:53:00
1:53 PM,60.1,36.0,41,29.81,10.0,NNW,8.1,-,N/A,,Scattered Clouds,330,2011-10-01 17:53:00
2:53 PM,61.0,36.0,39,29.80,10.0,Variable,6.9,17.3,N/A,,Clear,0,2011-10-01 18:53:00
3:53 PM,60.1,37.0,42,29.81,10.0,Variable,5.8,-,N/A,,Mostly Cloudy,0,2011-10-01 19:53:00
4:53 PM,60.1,37.0,42,29.82,10.0,Variable,5.8,-,N/A,,Mostly Cloudy,0,2011-10-01 20:53:00
5:53 PM,55.9,39.0,53,29.84,10.0,NW,5.8,-,N/A,,Overcast,310,2011-10-01 21:53:00
6:53 PM,54.0,39.0,57,29.86,10.0,NW,8.1,-,N/A,,Overcast,320,2011-10-01 22:53:00
7:53 PM,51.8,39.2,62,29.87,10.0,Variable,4.6,-,N/A,,Mostly Cloudy,0,2011-10-01 23:53:00
8:53 PM,51.1,39.0,63,29.88,10.0,NW,5.8,-,N/A,,Overcast,310,2011-10-02 00:53:00
9:53 PM,48.0,43.0,83,29.88,8.0,NW,4.6,-,0.02,Rain,Light Rain,310,2011-10-02 01:53:00
10:53 PM,48.2,42.8,82,29.88,7.0,Variable,3.5,-,N/A,Rain,Light Rain,0,2011-10-02 02:53:00
11:53 PM,48.0,43.0,83,29.86,10.0,West,4.6,-,0.02,Rain,Light Rain,280,2011-10-02 03:53:00